CAPE
1 4 4 5 3 3 2 3 4 4 4 2 1 0 0 0 0 0 0 0 0 0 0 0 0 0 0 0 0 0 0 0 0 0 0 0 0 0 0 0 0 0 0 0 0
1 4 4 4 3 2 2 2 2 2 2 4 4 2 0 0 0 0 0 0 0 0 0 0 0 0 0 0 0 0 0 0 0 0 0 0 0 0 0 0 0 0 0 0 0
3 4 3 1 2 2 2 1 1 0 1 2 2 3 1 0 0 0 0 0 0 0 0 0 0 0 0 0 0 0 0 0 0 0 0 0 0 0 0 0 0 0 0 0 0
2 1 1 0 0 1 1 1 1 2 2 1 1 1 0 0 0 0 0 0 0 0 0 0 0 0 0 0 0 0 0 0 0 0 0 0 0 0 0 0 0 0 0 0 0
0 0 0 0 0 0 0 0 0 1 1 1 0 0 0 0 0 0 0 0 0 0 0 0 0 0 0 0 0 0 0 0 0 0 0 0 0 0 0 0 0 0 0 0 0
2 1 1 0 0 0 0 0 0 0 2 0 0 0 0 0 0 0 0 0 0 0 0 0 0 0 0 0 0 0 0 0 0 0 0 0 0 0 0 0 0 0 0 0 0
2 3 2 1 1 0 0 0 0 0 0 0 0 0 0 0 0 0 0 0 0 0 0 0 0 0 0 0 0 0 0 0 0 0 0 0 0 0 0 0 0 0 0 0 0
2 2 2 1 0 0 0 0 0 0 0 0 0 0 0 0 0 0 0 0 0 0 0 0 0 0 0 0 0 0 0 0 0 0 0 0 0 0 0 0 0 0 0 0 0
2 1 2 2 0 0 0 0 0 0 0 0 0 0 0 0 0 0 0 0 0 0 0 0 0 0 0 0 0 0 0 0 0 0 0 0 0 0 0 0 0 0 0 0 0
3 2 3 2 2 0 0 0 0 0 0 0 0 0 0 0 0 0 0 0 0 0 0 0 0 0 0 0 0 0 0 0 0 0 0 0 0 0 0 0 0 0 0 0 0
1 2 1 1 1 0 0 0 0 0 0 0 0 0 0 0 0 0 0 0 0 0 0 0 0 0 0 0 0 0 0 0 0 0 0 0 0 0 0 0 0 0 0 0 0
2 1 1 1 0 0 0 0 0 0 0 0 0 0 0 0 0 0 0 0 0 0 0 0 0 0 0 0 0 0 0 0 0 0 0 0 0 0 0 0 0 0 0 0 0
1 1 0 1 0 0 0 0 0 0 0 0 0 0 0 0 0 0 0 0 0 0 0 0 0 0 0 0 0 0 0 0 0 0 0 0 0 0 0 0 0 0 0 0 0
1 1 1 1 0 0 0 0 0 0 0 0 0 0 0 0 0 0 0 0 0 0 0 0 0 0 0 0 0 0 0 0 0 0 0 0 0 0 0 0 0 0 0 0 0
3 0 1 1 0 0 0 0 0 0 0 0 0 0 0 0 0 0 0 0 0 0 0 0 0 0 0 1 0 0 0 0 0 0 0 0 0 0 0 0 0 0 0 0 0
0 2 1 0 0 0 0 0 0 0 0 0 0 0 0 0 0 0 0 0 0 0 0 0 0 0 0 0 0 0 0 0 0 0 0 0 0 0 0 0 0 0 0 0 0
0 0 0 0 0 0 0 0 0 0 0 0 0 0 0 0 0 0 0 0 35 0 3 0 0 0 0 0 0 0 1 0 0 1 0 0 0 0 0 0 0 0 0 0 0
0 0 0 0 0 0 0 0 0 0 0 0 0 0 0 0 0 0 0 0 31 29 0 0 0 0 0 0 0 0 0 8 0 0 0 0 0 0 0 0 0 0 0 0 0
0 0 0 0 0 0 0 0 0 0 0 0 0 0 0 0 0 0 0 0 28 5 0 0 0 5 80 97 3 4 2 0 0 0 0 0 0 0 0 0 0 0 0 0 0
0 0 0 0 0 0 0 0 0 0 0 0 1 0 0 0 0 0 0 0 11 2 17 3 0 16 0 41 43 0 5 1 0 0 0 0 0 0 0 0 0 0 0 0 0
0 0 0 0 0 0 0 0 0 0 0 0 2 3 4 4 0 2 0 0 14 9 0 2 0 3 6 12 0 1 0 9 1 0 0 0 0 0 0 0 0 0 0 0 41
0 0 0 0 0 0 0 0 0 0 0 0 6 3 5 8 3 5 0 0 0 11 6 16 3 0 0 0 0 0 0 0 14 0 0 0 0 0 0 0 0 0 0 0 82
0 0 0 0 0 0 0 0 0 0 0 2 1 3 6 5 12 3 0 0 0 0 1 5 0 0 0 33 0 0 0 0 1 0 2 0 0 0 0 0 0 0 0 0 70
0 0 0 0 0 0 0 0 0 0 0 11 10 6 1 1 4 4 2 4 0 1 7 9 4 1 1 0 0 0 0 0 0 0 3 0 0 0 0 0 0 0 0 0 131
0 0 0 0 0 0 0 0 0 5 4 0 4 3 2 2 5 4 5 4 3 1 14 11 4 7 0 0 0 0 0 0 0 0 0 0 0 0 0 0 0 0 0 0 12
0 0 0 0 0 0 0 0 0 2 0 1 4 10 9 2 14 3 6 3 6 0 8 3 1 6 2 0 0 0 0 0 0 0 0 0 0 0 0 0 0 0 0 0 0
0 0 0 0 0 0 0 0 0 0 0 0 4 4 3 2 9 3 9 6 4 4 3 5 3 3 2 0 0 0 0 0 0 0 0 0 0 0 0 0 0 0 0 0 0
CIN
-0 -0 -0 -0 -0 -0 -0 -0 -0 -0 -0 -0 -0 -0 -0 -0 -0 -0 -0 -0 -0 -0 -0 -0 -0 -0 -0 -0 -0 -0 -0 -0 -0 -0 -0 -0 -0 -0 -0 -0 -0 -0 -0 -0 -0
-0 -0 -0 -0 -0 -0 -0 -0 -0 -0 -0 -0 -0 -0 -0 -0 -0 -0 -0 -0 -0 -0 -0 -0 -0 -0 -0 -0 -0 -0 -0 -0 -0 -0 -0 -0 -0 -0 -0 -0 -0 -0 -0 -0 -0
-0 -0 -0 -0 -0 -0 -0 -0 -0 -0 -0 -0 -0 -0 -0 -0 -0 -0 -0 -0 -0 -0 -0 -0 -0 -0 -0 -0 -0 -0 -0 -0 -0 -0 -0 -0 -0 -0 -0 -0 -0 -0 -0 -0 -0
-0 -0 -0 -0 -0 -0 -0 -0 -0 -0 -0 -0 -0 -0 -0 -0 -0 -0 -0 -0 -0 -0 -0 -0 -0 -0 -0 -0 -0 -0 -0 -0 -0 -0 -0 -0 -0 -0 -0 -0 -0 -0 -0 -0 -0
-0 -0 -0 -0 -0 -0 -0 -0 -0 -0 -0 -0 -0 -0 -0 -0 -0 -0 -0 -0 -0 -0 -0 -0 -0 -0 -0 -0 -0 -0 -0 -0 -0 -0 -0 -0 -0 -0 -0 -0 -0 -0 -0 -0 -0
-0 -0 -0 -0 -0 -0 -0 -0 -0 -0 -0 -0 -0 -0 -0 -0 -0 -0 -0 -0 -0 -0 -0 -0 -0 -0 -0 -0 -0 -0 -0 -0 -0 -0 -0 -0 -0 -0 -0 -0 -0 -0 -0 -0 -0
-0 -0 -0 -0 -0 -0 -0 -0 -0 -0 -0 -0 -0 -0 -0 -0 -0 -0 -0 -0 -0 -0 -0 -0 -0 -0 -0 -0 -0 -0 -0 -0 -0 -0 -0 -0 -0 -0 -0 -0 -0 -0 -0 -0 -0
-0 -0 -0 -0 -0 -0 -0 -0 -0 -0 -0 -0 -0 -0 -0 -0 -0 -0 -0 -0 -0 -0 -0 -0 -0 -0 -0 -0 -0 -0 -0 -0 -0 -0 -0 -0 -0 -0 -0 -0 -0 -0 -0 -0 -0
-0 -0 -0 -0 -0 -0 -0 -0 -0 -0 -0 -0 -0 -0 -0 -0 -0 -0 -0 -0 -0 -0 -0 -0 -0 -0 -0 -0 -0 -0 -0 -0 -0 -0 -0 -0 -0 -0 -0 -0 -0 -0 -0 -0 -0
-0 -0 -0 -0 -0 -0 -0 -0 -0 -0 -0 -0 -0 -0 -0 -0 -0 -0 -0 -0 -0 -0 -0 -0 -0 -0 -0 -0 -0 -0 -0 -0 -0 -0 -0 -0 -0 -0 -0 -0 -0 -0 -0 -0 -0
-0 -0 -0 -0 -0 -0 -0 -0 -0 -0 -0 -0 -0 -0 -0 -0 -0 -0 -0 -0 -0 -0 -0 -0 -0 -0 -0 -0 -0 -0 -0 -0 -0 -0 -0 -0 -0 -0 -0 -0 -0 -0 -0 -0 -0
-0 -0 -0 -0 -0 -0 -0 -0 -0 -0 -0 -0 -0 -0 -0 -0 -0 -0 -0 -0 -0 -0 -0 -0 -0 -0 -0 -0 -0 -0 -0 -0 -0 -0 -0 -0 -0 -0 -0 -0 -0 -0 -0 -0 -0
-0 -0 -0 -0 -0 -0 -0 -0 -0 -0 -0 -0 -0 -0 -0 -0 -0 -0 -0 -0 -0 -0 -0 -0 -0 -0 -0 -0 -0 -0 -0 -0 -0 -0 -0 -0 -0 -0 -0 -0 -0 -0 -0 -0 -0
-0 -0 -0 -0 -0 -0 -0 -0 -0 -0 -0 -0 -0 -0 -0 -0 -0 -0 -0 -0 -0 -0 -0 -0 -0 -0 -0 -0 -0 -0 -0 -0 -0 -0 -0 -0 -0 -0 -0 -0 -0 -0 -0 -0 -0
-0 -0 -0 -0 -0 -0 -0 -0 -0 -0 -0 -0 -0 -0 -0 -0 -0 -0 -0 -0 -0 -0 -0 -0 -0 -0 -0 -6 -0 -0 -0 -0 -0 -0 -0 -0 -0 -0 -0 -0 -0 -0 -0 -0 -0
-0 -0 -0 -0 -0 -0 -0 -0 -0 -0 -0 -0 -0 -0 -0 -0 -0 -0 -0 -0 -0 -0 -0 -0 -0 -0 -0 -0 -0 -0 -0 -0 -0 -0 -0 -0 -0 -0 -0 -0 -0 -0 -0 -0 -0
-0 -0 -0 -0 -0 -0 -0 -0 -0 -0 -0 -0 -0 -0 -0 -0 -0 -0 -0 -0 -12 -0 -36 -28 -0 -0 -0 -0 -0 -0 -2 -0 -0 -2 -0 -0 -0 -0 -0 -0 -0 -0 -0 -0 -0
-0 -0 -0 -0 -0 -0 -0 -0 -0 -0 -0 -0 -0 -0 -0 -0 -0 -0 -0 -0 -15 -13 -0 -1 -0 -0 -0 -0 -0 -0 -0 -6 -0 -0 -0 -0 -0 -0 -0 -0 -0 -0 -0 -0 -0
-0 -0 -0 -0 -0 -0 -0 -0 -0 -0 -0 -1 -0 -0 -0 -0 -0 -0 -0 -0 -12 -25 -0 -0 -3 -10 -15 -18 -8 -4 -10 -0 -0 -0 -0 -0 -0 -0 -0 -0 -0 -0 -0 -0 -0
-0 -0 -0 -0 -0 -0 -0 -0 -0 -0 -0 -0 -0 -0 -0 -0 -0 -0 -0 -0 -16 -10 -18 -5 -1 -32 -0 -23 -16 -0 -3 -3 -0 -0 -0 -0 -0 -0 -0 -0 -0 -0 -0 -0 -0
-0 -0 -0 -0 -0 -0 -0 -0 -0 -0 -0 -0 -0 -0 -0 -0 -0 -1 -0 -0 -28 -51 -8 -19 -0 -8 -19 -11 -0 -4 -1 -8 -11 -0 -0 -0 -0 -0 -0 -0 -0 -0 -0 -0 -447
-0 -0 -0 -0 -0 -0 -0 -0 -0 -0 -0 -0 -1 -0 -0 -0 -0 -0 -0 -0 -3 -45 -52 -28 -3 -0 -0 -0 -0 -0 -0 -0 -6 -0 -0 -0 -0 -0 -0 -0 -0 -0 -0 -0 -409
-0 -0 -0 -0 -0 -0 -0 -0 -0 -0 -0 -0 -0 -3 -0 -0 -2 -0 -0 -0 -0 -1 -20 -25 -0 -1 -0 -28 -3 -0 -0 -0 -7 -0 -2 -1 -0 -0 -0 -0 -0 -0 -0 -0 -400
-0 -0 -0 -0 -0 -0 -0 -0 -0 -3 -0 -0 -3 -1 -1 -0 -4 -0 -0 -1 -0 -11 -11 -5 -10 -2 -1 -0 -0 -0 -0 -0 -0 -1 -2 -0 -0 -0 -0 -0 -0 -0 -0 -0 -277
-0 -0 -0 -0 -0 -0 -0 -0 -0 -0 -1 -0 -3 -19 -0 -0 -0 -0 -1 -1 -1 -0 -3 -1 -0 -1 -0 -0 -0 -0 -0 -0 -0 -0 -0 -0 -0 -0 -0 -0 -0 -0 -0 -0 -63
-0 -0 -0 -0 -0 -0 -0 -0 -0 -0 -0 -1 -0 -0 -0 -0 -0 -1 -0 -0 -0 -4 -0 -0 -0 -0 -1 -0 -0 -0 -0 -0 -0 -0 -0 -0 -0 -0 -0 -0 -0 -0 -0 -0 -0
-0 -0 -0 -0 -0 -0 -0 -0 -0 -0 -0 -0 -0 -1 -1 -1 -0 -1 -0 -0 -0 -0 -0 -1 -0 -0 -0 -0 -0 -0 -0 -0 -0 -0 -0 -0 -0 -0 -0 -0 -0 -0 -0 -0 -0
Wind_Speed
27 28 28 29 30 31 31 32 32 32 31 32 33 34 35 36 38 32 32 26 27 33 33 30 28 26 27 28 25 23 33 37 34 28 28 24 24 21 17 18 14 9 8 10 6
27 28 29 29 30 31 31 32 32 32 32 32 32 33 34 35 35 31 23 23 26 29 28 29 31 28 31 31 29 30 35 35 33 33 31 32 30 24 21 21 18 14 10 9 10
27 28 29 29 30 30 30 30 30 31 31 31 31 32 33 33 28 22 11 23 26 28 25 26 27 29 36 34 32 34 41 39 39 35 32 35 37 27 28 30 25 20 19 21 26
29 29 29 30 30 30 30 30 30 31 31 31 30 31 31 25 27 20 24 30 30 28 23 25 27 30 38 39 36 43 42 42 42 35 34 39 40 41 35 35 29 33 31 29 29
29 29 29 30 30 30 30 30 31 32 31 29 27 27 27 28 23 24 30 31 26 25 25 27 29 31 39 38 40 48 47 42 47 41 38 37 50 46 46 42 41 42 42 40 35
29 28 29 29 30 31 31 31 32 32 30 26 24 24 26 28 22 25 28 29 26 26 26 25 26 30 37 39 40 40 47 51 45 43 45 45 54 48 51 38 42 42 44 40 38
30 31 31 32 32 33 33 33 34 33 30 23 22 21 22 24 25 30 30 26 25 25 29 27 27 29 30 40 38 43 52 45 47 49 45 35 55 67 51 49 48 49 47 50 47
32 32 33 34 34 34 35 35 35 31 24 20 19 21 23 23 28 31 28 29 25 25 26 25 26 31 32 33 37 41 44 57 51 42 42 36 64 72 50 51 53 52 50 52 50
33 33 34 35 35 35 35 36 32 24 20 19 21 23 25 28 32 33 27 31 30 26 25 22 23 31 31 38 42 41 53 52 53 43 41 38 62 61 53 49 52 51 49 49 48
35 35 35 35 35 35 36 32 23 20 21 20 20 24 25 34 36 37 30 30 30 29 27 26 26 35 36 38 54 49 52 53 53 41 41 47 65 53 42 42 49 48 48 50 51
36 36 36 35 35 34 32 24 27 23 25 22 24 24 29 31 36 31 31 29 28 28 34 30 35 44 44 42 43 45 39 52 47 38 43 49 60 55 50 55 59 57 55 56 55
35 36 36 35 34 29 25 25 23 23 28 21 22 21 26 29 35 35 26 31 31 36 30 33 43 40 39 39 44 48 49 43 38 38 39 43 53 50 48 51 54 57 58 56 56
10 10 11 27 20 21 23 21 20 22 26 23 21 23 28 35 32 33 27 31 31 34 34 39 41 34 37 43 46 45 50 50 43 36 40 44 58 55 51 48 50 52 53 55 55
10 11 16 17 18 21 20 19 22 17 26 23 24 23 32 34 25 34 22 27 26 31 30 33 34 37 40 40 43 49 38 40 45 46 51 33 57 45 42 47 45 46 46 49 50
12 12 15 16 16 19 20 22 20 17 32 24 24 23 35 30 31 28 25 23 28 30 28 36 35 32 37 37 34 46 39 37 35 40 44 49 53 56 41 51 45 42 42 43 46
15 13 16 15 15 17 20 21 17 23 26 24 25 34 39 30 34 25 28 27 23 24 23 39 24 29 32 31 31 32 38 43 42 41 53 46 43 61 48 49 46 45 41 39 40
15 19 17 16 19 19 21 19 24 23 23 24 30 34 35 30 34 29 32 30 25 25 27 31 16 17 18 32 30 31 33 41 48 51 56 35 41 50 18 28 32 26 29 31 30
13 19 17 16 16 19 21 20 24 21 22 24 28 33 27 29 30 30 28 28 20 20 29 23 24 10 3 21 30 33 37 39 50 49 53 38 41 35 32 25 27 30 31 29 31
24 19 18 19 19 20 21 25 22 21 21 25 30 27 28 23 28 27 27 20 19 23 24 25 20 21 10 17 20 27 36 38 32 34 43 37 45 46 39 31 24 24 25 30 31
26 19 20 18 18 20 22 22 19 19 22 23 26 24 27 27 25 24 23 15 18 23 24 23 25 17 19 20 24 23 23 34 35 37 39 35 42 37 25 31 25 24 26 28 30
25 21 20 19 18 22 24 21 20 17 20 21 22 23 22 23 19 22 17 6 12 26 27 26 21 18 23 13 26 25 24 28 34 36 32 32 28 26 20 14 16 20 21 24 24
26 22 23 20 22 23 25 21 21 19 19 19 17 17 17 13 14 10 8 9 9 25 27 24 23 25 25 26 26 24 23 27 37 43 40 33 28 18 15 15 18 18 20 22 19
29 21 21 20 25 26 23 20 18 19 20 19 17 17 14 10 7 8 9 12 6 5 10 23 22 26 25 19 16 21 23 25 31 35 41 41 31 22 25 25 22 22 22 21 17
26 26 23 23 23 24 26 21 22 17 16 17 16 12 6 4 2 1 7 3 15 12 13 20 25 28 30 27 26 28 29 31 33 41 45 47 46 45 36 30 27 25 22 20 17
26 24 23 24 24 24 22 19 20 20 17 19 16 11 6 2 11 12 5 5 4 10 20 15 20 14 32 33 32 35 36 37 40 42 44 43 50 45 36 32 30 28 25 23 20
25 25 23 21 20 23 21 21 20 21 20 17 12 5 14 11 13 16 13 8 3 3 5 1 7 3 12 34 34 39 39 40 42 44 47 48 53 44 42 38 34 32 29 26 22
21 19 21 21 21 23 21 21 18 18 15 11 5 4 11 9 9 14 16 16 15 3 2 6 8 12 18 15 19 33 38 42 42 43 44 52 50 44 42 38 35 32 29 28 24
Wind_Direction
327 325 322 319 317 315 314 313 312 311 312 313 313 311 307 303 299 303 294 292 291 287 283 280 276 272 268 266 268 267 263 262 260 261 262 266 265 270 276 275 285 300 315 321 339
328 325 323 321 320 318 316 314 314 314 314 313 313 312 310 308 305 301 304 301 296 294 285 274 267 266 263 262 261 258 261 260 262 260 263 261 263 266 267 267 272 281 311 322 326
326 324 323 322 321 319 318 317 317 317 318 319 320 319 316 314 312 310 340 323 312 304 290 281 271 265 261 261 257 260 259 262 261 262 262 260 258 266 263 263 265 271 283 292 288
327 326 324 323 323 323 323 324 326 324 324 325 326 323 320 329 305 320 313 310 308 306 297 284 271 262 261 258 258 261 262 261 262 264 262 259 261 260 261 261 269 273 281 286 288
327 326 325 323 322 322 321 321 323 324 327 332 337 337 337 323 318 322 314 309 309 310 296 285 272 265 262 264 261 259 260 263 259 262 262 265 256 260 261 262 267 271 273 277 285
321 318 317 316 316 316 313 313 322 328 332 339 340 342 340 324 339 332 324 316 312 307 297 288 281 273 270 265 261 266 263 261 262 262 260 261 258 262 258 265 266 270 272 278 285
322 321 320 319 319 319 317 314 317 321 333 343 348 348 342 338 335 326 322 323 320 310 298 289 281 275 276 268 269 267 262 265 260 258 260 263 260 252 260 264 268 269 272 274 280
322 321 321 323 321 321 321 319 323 336 348 355 357 349 334 343 336 329 329 319 317 312 308 296 280 276 269 276 271 265 263 259 257 259 261 255 258 251 263 265 266 268 273 276 278
323 323 323 324 323 321 323 326 337 352 5 7 353 345 338 339 334 331 331 322 313 309 312 302 285 270 271 263 267 262 259 259 261 257 257 253 258 261 263 266 266 268 273 276 279
327 329 326 330 330 326 323 341 5 11 5 3 356 342 341 334 333 327 329 324 316 305 306 299 283 269 262 257 256 261 261 261 261 261 257 256 257 262 266 267 266 269 275 276 278
331 329 326 331 332 329 345 1 354 354 353 348 343 340 334 338 335 339 336 331 323 308 295 295 279 266 263 261 260 264 272 262 263 263 259 258 260 262 265 265 264 268 272 274 278
321 322 322 324 330 342 6 3 3 358 343 347 342 342 342 342 333 335 346 331 323 305 297 289 277 274 271 266 260 259 260 264 267 264 263 263 262 264 264 266 267 268 270 274 276
312 304 303 354 340 14 10 15 15 6 348 348 352 349 347 340 335 337 342 335 324 311 297 283 281 281 271 261 258 258 256 256 261 266 267 268 263 263 264 268 269 269 270 271 272
342 2 14 18 24 15 16 18 5 13 349 352 353 354 348 343 344 342 349 340 331 315 308 292 288 276 267 264 256 254 259 258 256 258 258 264 263 263 265 266 269 272 274 274 273
346 2 16 25 25 22 17 9 13 19 342 357 356 1 348 350 344 353 354 345 326 315 310 296 291 280 267 263 262 255 253 255 259 258 259 258 264 261 268 266 271 274 277 276 273
331 9 27 43 39 28 18 14 25 0 348 357 355 348 345 351 347 351 346 342 337 325 315 295 296 281 272 271 266 264 252 250 254 256 254 255 261 257 264 267 271 271 274 276 274
329 27 50 52 31 25 19 24 3 359 4 358 350 349 345 350 350 352 345 341 340 332 325 310 321 291 276 269 267 259 249 243 244 245 248 259 254 253 281 282 276 275 280 278 284
338 41 51 43 30 21 21 20 1 6 359 357 354 349 352 352 353 352 346 341 356 348 323 327 321 343 286 264 258 255 244 243 243 244 245 249 253 255 262 278 280 270 270 280 282
23 39 42 33 33 27 22 10 9 8 5 357 353 357 357 0 355 354 347 352 0 314 312 306 328 334 15 297 263 257 246 241 255 249 243 246 251 251 250 259 272 273 277 284 281
20 30 34 33 32 27 21 15 15 13 6 4 359 2 355 356 357 359 358 10 4 303 308 302 313 350 290 281 255 263 259 235 240 240 240 246 246 245 253 250 265 278 284 289 287
21 25 30 30 33 27 17 17 11 13 9 9 3 359 0 2 10 4 8 24 36 295 302 293 308 324 279 320 244 262 260 244 243 239 241 242 245 245 240 243 263 286 296 293 290
16 19 23 31 20 22 15 15 10 17 19 10 13 7 7 20 19 29 53 53 27 323 290 308 304 300 295 272 262 259 266 253 239 233 237 243 240 239 225 251 271 287 295 307 286
8 18 24 30 16 13 15 16 20 17 16 17 16 20 25 31 35 40 15 14 13 221 27 313 301 295 292 298 311 282 274 262 248 239 232 231 229 228 238 254 269 280 291 296 282
10 10 17 27 23 18 14 21 18 24 17 26 12 25 70 216 210 323 298 348 348 279 334 327 298 282 277 285 295 277 265 257 245 234 232 230 232 232 244 253 262 275 285 289 279
11 12 15 11 16 13 17 17 15 18 29 15 27 41 209 279 275 269 290 281 243 340 315 323 238 311 278 281 283 270 256 251 242 237 233 233 230 235 243 250 261 268 276 279 274
8 10 13 9 15 14 21 20 19 21 18 18 24 21 255 259 266 280 282 273 277 116 166 267 233 314 210 263 280 261 254 250 243 239 235 234 233 244 250 254 257 261 265 269 269
16 19 17 12 17 15 20 20 16 13 25 32 22 288 259 267 281 278 269 266 240 273 155 145 138 174 208 203 218 256 249 244 245 239 234 230 234 242 245 245 251 256 259 258 258